IK0XIH-3 Weather Reports


time (UTC)temp
C
wind
direction
speed
KPH
gust
KPH
rain 1hr
cm
rain 24hr
cm
rain mn
cm
humidity
%
barometer
mb
20260508024822 16 286 1.6 3.2 0.00 0.00 0.00 93 1006.5
20260508024319 16 137 0.0 0.0 0.00 0.00 0.00 94 1006.6
20260508023819 16 136 0.0 0.0 0.00 0.00 0.00 94 1006.6
20260508023322 16 136 0.0 0.0 0.00 0.00 0.00 94 1006.6
20260508022819 16 136 0.0 0.0 0.00 0.00 0.00 94 1006.7
20260508022322 16 136 0.0 4.8 0.00 0.00 0.00 94 1006.7
20260508021822 16 136 3.2 3.2 0.00 0.00 0.00 94 1006.7
20260508021319 16 136 0.0 0.0 0.00 0.00 0.00 94 1006.6
20260508020819 16 136 0.0 0.0 0.00 0.00 0.00 94 1006.6
20260508020322 16 136 0.0 0.0 0.00 0.00 0.00 95 1006.6
20260508015822 16 136 0.0 0.0 0.00 0.00 0.00 95 1006.6
20260508015322 16 136 0.0 0.0 0.00 0.00 0.00 95 1006.6
20260508014822 16 136 0.0 0.0 0.00 0.00 0.00 95 1006.6
20260508014322 16 136 0.0 0.0 0.00 0.00 0.00 95 1006.6
20260508013822 16 136 0.0 0.0 0.00 0.00 0.00 95 1006.6
20260508013319 16 136 0.0 0.0 0.00 0.00 0.00 95 1006.6
20260508012819 16 136 0.0 0.0 0.00 0.00 0.00 95 1006.6
20260508012322 16 134 0.0 0.0 0.00 0.00 0.00 95 1006.6
20260508011819 16 128 0.0 0.0 0.00 0.00 0.00 95 1006.6
20260508011319 16 128 0.0 0.0 0.00 0.00 0.00 95 1006.5
20260508010819 16 128 0.0 0.0 0.00 0.00 0.00 95 1006.5
20260508010318 16 128 0.0 0.0 0.00 0.00 0.00 95 1006.5
20260508005819 16 128 0.0 0.0 0.00 0.00 0.00 94 1006.4
20260508005319 16 124 0.0 0.0 0.00 0.00 0.00 95 1006.4
20260508004819 16 125 0.0 0.0 0.00 0.00 0.00 95 1006.4
20260508004321 16 128 0.0 0.0 0.00 0.00 0.00 95 1006.7
20260508003821 16 128 0.0 0.0 0.00 0.00 0.00 95 1006.7
20260508003318 16 128 0.0 0.0 0.00 0.00 0.00 95 1006.7
20260508002818 16 124 0.0 0.0 0.00 0.00 0.00 95 1007.0
20260508002321 16 109 0.0 0.0 0.00 0.00 0.00 95 1007.0
20260508001821 16 109 0.0 0.0 0.00 0.00 0.00 95 1007.0
20260508001318 16 109 0.0 0.0 0.00 0.00 0.00 94 1007.1
20260508000821 16 109 0.0 0.0 0.00 0.00 0.00 94 1007.1
20260508000320 16 109 0.0 1.6 0.00 0.00 0.00 94 1007.1
20260507235821 16 109 0.0 0.0 0.00 0.00 0.00 94 1007.1
20260507235321 16 109 0.0 0.0 0.00 0.00 0.00 94 1007.1
20260507234821 16 109 0.0 0.0 0.00 0.00 0.00 94 1007.1
20260507234321 16 109 0.0 0.0 0.00 0.00 0.00 94 1007.3
20260507233822 16 109 0.0 0.0 0.00 0.00 0.00 94 1007.3
20260507233318 16 109 0.0 0.0 0.00 0.00 0.00 94 1007.3
20260507232818 16 109 0.0 0.0 0.00 0.00 0.00 94 1007.5
20260507232321 16 109 0.0 0.0 0.00 0.00 0.00 94 1007.5
20260507231818 16 111 0.0 0.0 0.00 0.00 0.00 94 1007.5
20260507231321 16 111 0.0 0.0 0.00 0.00 0.00 94 1007.6
20260507230818 16 111 0.0 1.6 0.00 0.00 0.00 94 1007.6
20260507230318 16 111 0.0 0.0 0.00 0.00 0.00 94 1007.6
20260507225821 16 111 0.0 0.0 0.00 0.00 0.00 94 1007.8
20260507225321 16 111 0.0 0.0 0.00 0.00 0.00 94 1007.8
20260507224821 16 111 0.0 0.0 0.00 0.00 0.00 93 1007.8
20260507224321 16 111 0.0 0.0 0.00 0.00 0.00 93 1008.0
20260507223818 16 111 0.0 0.0 0.00 0.00 0.00 93 1008.0
20260507223322 16 111 0.0 0.0 0.00 0.00 0.00 93 1008.0
20260507222819 16 111 0.0 0.0 0.00 0.00 0.00 93 1007.9
20260507222318 16 100 0.0 0.0 0.00 0.00 0.00 93 1007.9
20260507221821 16 100 0.0 0.0 0.00 0.00 0.00 93 1007.9
20260507221321 16 100 0.0 1.6 0.00 0.00 0.00 93 1008.0
20260507220818 16 100 0.0 0.0 0.00 0.00 0.00 93 1008.0
20260507220318 16 99 0.0 0.0 0.00 0.00 0.00 93 1008.0
20260507215821 16 100 0.0 0.0 0.00 0.00 0.00 93 1008.1
20260507215321 16 100 0.0 0.0 0.00 0.00 0.00 93 1008.1
20260507214818 16 100 0.0 3.2 0.00 0.00 0.00 93 1008.1
20260507214321 16 51 1.6 1.6 0.00 0.00 0.00 93 1008.2
20260507213821 16 338 0.0 1.6 0.00 0.00 0.00 93 1008.2
20260507213318 16 330 0.0 0.0 0.00 0.00 0.00 93 1008.2
20260507212822 16 330 0.0 0.0 0.00 0.00 0.00 92 1008.2
20260507212321 16 330 0.0 0.0 0.00 0.00 0.00 92 1008.2
20260507211818 16 330 0.0 0.0 0.00 0.00 0.00 92 1008.2
20260507211318 16 330 0.0 0.0 0.00 0.00 0.00 92 1008.2
20260507210821 16 330 0.0 1.6 0.00 0.00 0.00 92 1008.2
20260507210321 17 330 0.0 3.2 0.00 0.00 0.00 92 1008.2
20260507205821 17 330 0.0 3.2 0.00 0.00 0.00 91 1008.3
20260507205321 17 74 0.0 0.0 0.00 0.00 0.00 91 1008.3
20260507204821 17 74 0.0 0.0 0.00 0.00 0.00 91 1008.3
20260507204318 17 74 0.0 0.0 0.00 0.00 0.00 91 1008.3
20260507203821 17 74 0.0 0.0 0.00 0.00 0.00 91 1008.3
20260507203321 17 74 0.0 0.0 0.00 0.00 0.00 91 1008.3
20260507202821 17 74 0.0 0.0 0.00 0.00 0.00 90 1008.6
20260507202322 17 74 0.0 0.0 0.00 0.00 0.00 90 1008.6
20260507201821 17 74 0.0 0.0 0.00 0.00 0.00 90 1008.6
20260507201321 17 74 0.0 0.0 0.00 0.00 0.00 90 1008.6
20260507200821 17 74 0.0 3.2 0.00 0.00 0.00 90 1008.6
20260507200318 17 74 1.6 3.2 0.00 0.03 0.00 90 1008.6
20260507195818 17 69 0.0 1.6 0.00 0.03 0.00 89 1008.6
20260507195321 17 69 0.0 0.0 0.00 0.03 0.00 90 1008.6
20260507194818 17 69 0.0 3.2 0.00 0.03 0.00 89 1008.6
20260507194318 17 305 0.0 0.0 0.00 0.03 0.00 89 1008.5
20260507193821 17 306 1.6 4.8 0.00 0.03 0.00 89 1008.5
20260507193321 18 295 3.2 4.8 0.00 0.03 0.00 89 1008.5
20260507192821 18 300 0.0 1.6 0.00 0.03 0.00 88 1008.6
20260507192321 18 300 0.0 1.6 0.00 0.03 0.00 88 1008.6
20260507191817 18 300 0.0 3.2 0.00 0.03 0.00 88 1008.6
20260507191320 18 299 0.0 3.2 0.00 0.03 0.00 87 1008.6
20260507190817 18 295 3.2 4.8 0.00 0.03 0.00 87 1008.6
20260507190320 18 288 0.0 4.8 0.00 0.03 0.00 87 1008.6
20260507185820 18 281 3.2 4.8 0.00 0.03 0.00 87 1008.6
20260507185318 18 281 1.6 4.8 0.00 0.03 0.00 87 1008.6
20260507184817 18 288 3.2 4.8 0.00 0.03 0.00 86 1008.6
20260507184317 18 293 1.6 3.2 0.00 0.03 0.00 86 1008.6
20260507183818 18 293 0.0 1.6 0.00 0.03 0.00 86 1008.6
20260507183321 18 293 0.0 3.2 0.00 0.03 0.00 86 1008.6
20260507182817 19 295 0.0 4.8 0.00 0.03 0.00 86 1008.6
20260507182320 19 306 1.6 6.4 0.00 0.03 0.00 85 1008.6
20260507181817 19 299 3.2 6.4 0.00 0.03 0.00 85 1008.6
20260507181320 19 299 0.0 6.4 0.00 0.03 0.00 85 1008.7
20260507180820 19 301 0.0 6.4 0.00 0.03 0.00 85 1008.7
20260507180317 20 306 3.2 4.8 0.00 0.03 0.00 85 1008.7
20260507175817 20 286 1.6 6.4 0.00 0.03 0.00 84 1008.7
20260507175317 20 302 1.6 6.4 0.00 0.03 0.00 84 1008.7
20260507174820 20 308 1.6 8.0 0.00 0.03 0.00 84 1008.7
20260507174318 20 300 4.8 8.0 0.00 0.03 0.00 84 1008.8
20260507173820 20 281 4.8 9.7 0.00 0.03 0.00 83 1008.8
20260507173317 20 306 4.8 11.3 0.00 0.03 0.00 82 1008.8
20260507172817 20 300 4.8 9.7 0.00 0.03 0.00 82 1008.8
20260507172317 20 302 4.8 6.4 0.00 0.03 0.00 81 1008.8
20260507171818 21 297 4.8 11.3 0.00 0.03 0.00 80 1008.8
20260507171320 21 307 6.4 8.0 0.00 0.03 0.00 79 1008.9
20260507170817 21 301 8.0 11.3 0.00 0.03 0.00 78 1008.9
20260507170320 21 300 4.8 11.3 0.00 0.03 0.00 78 1008.9
20260507165820 21 294 11.3 11.3 0.00 0.03 0.00 78 1008.8
20260507165317 21 302 6.4 11.3 0.00 0.03 0.00 78 1008.8
20260507164820 21 252 6.4 11.3 0.00 0.03 0.00 78 1008.8
20260507164317 21 271 9.7 11.3 0.00 0.03 0.00 78 1008.8
20260507163817 21 261 6.4 12.9 0.00 0.03 0.00 77 1008.8
20260507163320 21 267 11.3 16.1 0.00 0.03 0.00 77 1008.8
20260507162818 21 265 11.3 11.3 0.00 0.03 0.00 77 1008.7
20260507162317 21 267 8.0 12.9 0.00 0.03 0.00 76 1008.7
20260507161817 21 295 4.8 9.7 0.00 0.03 0.00 76 1008.7
20260507161317 22 261 8.0 11.3 0.00 0.03 0.00 75 1008.9
20260507160817 22 248 9.7 11.3 0.00 0.03 0.00 74 1008.9
20260507160320 22 298 1.6 9.7 0.00 0.03 0.00 73 1008.9
20260507155820 22 269 8.0 11.3 0.00 0.03 0.00 72 1008.9
20260507155320 22 242 3.2 9.7 0.00 0.03 0.00 73 1008.9
20260507154817 22 271 9.7 9.7 0.00 0.03 0.00 73 1008.9
20260507154317 22 265 4.8 9.7 0.00 0.03 0.00 72 1008.8
20260507153820 22 218 6.4 9.7 0.00 0.03 0.00 72 1008.8
20260507153317 22 224 6.4 8.0 0.00 0.03 0.00 72 1008.8
20260507152817 22 248 4.8 9.7 0.00 0.03 0.00 73 1008.9
20260507152317 22 250 4.8 11.3 0.00 0.03 0.00 72 1008.9
20260507151817 22 266 8.0 11.3 0.00 0.03 0.00 72 1008.9
20260507151320 22 221 8.0 11.3 0.00 0.03 0.00 71 1009.0
20260507150820 23 306 6.4 8.0 0.00 0.03 0.00 72 1009.0
20260507150320 22 282 4.8 9.7 0.00 0.03 0.00 71 1009.0
20260507145820 22 267 4.8 12.9 0.00 0.03 0.00 71 1009.2
20260507145320 23 236 3.2 9.7 0.00 0.03 0.00 71 1009.2
20260507144817 22 244 0.0 9.7 0.00 0.03 0.00 70 1009.2
20260507144320 23 259 6.4 11.3 0.00 0.03 0.00 69 1009.2
20260507143817 23 322 3.2 6.4 0.00 0.03 0.00 71 1009.2
20260507143317 23 290 6.4 6.4 0.00 0.03 0.00 70 1009.2
20260507142817 22 251 1.6 8.0 0.00 0.03 0.00 71 1009.3
20260507142317 22 290 3.2 6.4 0.00 0.03 0.00 72 1009.3
20260507141817 22 308 1.6 8.0 0.00 0.03 0.00 71 1009.3
20260507141320 22 294 6.4 9.7 0.00 0.03 0.00 70 1009.6
20260507140820 22 302 4.8 4.8 0.00 0.03 0.00 71 1009.6
20260507140320 22 15 0.0 6.4 0.00 0.03 0.00 70 1009.6
20260507135820 22 305 1.6 8.0 0.00 0.03 0.00 71 1009.8
20260507135320 22 285 8.0 9.7 0.00 0.03 0.00 70 1009.8
20260507134816 23 328 3.2 6.4 0.00 0.03 0.00 70 1009.8
20260507134316 22 338 0.0 6.4 0.00 0.03 0.00 71 1010.0
20260507133819 22 310 4.8 9.7 0.00 0.03 0.00 71 1010.0
20260507133320 22 266 3.2 9.7 0.00 0.03 0.00 71 1010.0
20260507132816 22 264 6.4 9.7 0.00 0.03 0.00 71 1010.3
20260507132320 22 251 6.4 8.0 0.00 0.03 0.00 69 1010.3
20260507131819 22 274 4.8 8.0 0.00 0.03 0.00 70 1010.3
20260507131319 22 269 1.6 11.3 0.00 0.03 0.00 70 1010.3
20260507130816 22 258 8.0 9.7 0.00 0.03 0.00 71 1010.3
20260507130316 22 275 1.6 9.7 0.00 0.03 0.00 73 1010.3
20260507125816 22 272 4.8 9.7 0.00 0.03 0.00 72 1010.5
20260507125319 22 227 6.4 9.7 0.00 0.03 0.00 72 1010.5
20260507124819 22 278 4.8 11.3 0.00 0.03 0.00 72 1010.5
20260507124319 21 306 0.0 11.3 0.00 0.03 0.00 74 1010.7
20260507123816 21 270 9.7 11.3 0.00 0.03 0.00 73 1010.7
20260507123320 21 214 4.8 12.9 0.00 0.03 0.00 75 1010.7
20260507122819 21 255 8.0 11.3 0.00 0.03 0.00 75 1010.8
20260507122316 21 263 6.4 8.0 0.00 0.03 0.00 74 1010.8
20260507121816 21 256 1.6 12.9 0.00 0.03 0.00 75 1010.8
20260507121319 21 243 4.8 11.3 0.00 0.03 0.00 74 1010.7
20260507120819 21 241 8.0 12.9 0.00 0.03 0.00 74 1010.7
20260507120319 21 246 8.0 12.9 0.00 0.03 0.00 74 1010.7
20260507115816 21 237 8.0 16.1 0.00 0.03 0.00 73 1010.8
20260507115316 21 241 11.3 14.5 0.00 0.03 0.00 72 1010.8
20260507114819 21 242 8.0 17.7 0.00 0.03 0.00 73 1010.8
20260507114319 21 223 8.0 16.1 0.00 0.03 0.00 72 1010.8
20260507113819 21 202 6.4 19.3 0.00 0.03 0.00 72 1010.8
20260507113316 21 242 9.7 19.3 0.00 0.03 0.00 71 1010.8
20260507112816 21 209 12.9 17.7 0.00 0.03 0.00 71 1010.9
20260507112316 21 229 12.9 17.7 0.00 0.03 0.00 71 1010.9
20260507111819 22 225 9.7 19.3 0.00 0.03 0.00 71 1010.9
20260507111319 22 247 9.7 19.3 0.00 0.03 0.00 69 1010.9
20260507110816 22 241 14.5 22.5 0.00 0.03 0.00 69 1010.9
20260507110319 22 248 8.0 20.9 0.00 0.03 0.00 68 1010.9
20260507105819 23 232 9.7 16.1 0.00 0.03 0.00 66 1011.0
20260507105316 23 264 4.8 8.0 0.00 0.03 0.00 60 1011.0
20260507104816 23 252 0.0 6.4 0.00 0.03 0.00 60 1011.0
20260507104319 23 243 6.4 8.0 0.00 0.03 0.00 61 1011.0
20260507103819 23 184 3.2 6.4 0.00 0.03 0.00 61 1011.0
20260507103319 23 213 3.2 8.0 0.00 0.03 0.00 60 1011.0
20260507102819 23 260 4.8 8.0 0.00 0.03 0.00 61 1011.0
20260507102319 23 259 3.2 8.0 0.00 0.03 0.00 62 1011.0
20260507101816 23 76 3.2 4.8 0.00 0.03 0.00 61 1011.0
20260507101319 23 341 0.0 8.0 0.00 0.03 0.00 61 1011.1
20260507100816 23 85 0.0 3.2 0.00 0.03 0.00 63 1011.1
20260507100316 22 304 3.2 4.8 0.00 0.03 0.00 61 1011.1
20260507095819 23 286 3.2 6.4 0.00 0.03 0.00 62 1011.2
20260507095316 22 266 4.8 8.0 0.00 0.03 0.00 63 1011.2
20260507094816 22 269 3.2 6.4 0.00 0.03 0.00 64 1011.2
20260507094316 22 292 0.0 8.0 0.00 0.03 0.00 65 1011.2
20260507093816 22 304 6.4 11.3 0.00 0.03 0.00 65 1011.2
20260507093316 22 264 4.8 6.4 0.00 0.03 0.00 65 1011.2
20260507092819 22 257 6.4 8.0 0.00 0.03 0.00 65 1011.1
20260507092319 22 63 1.6 3.2 0.00 0.03 0.00 63 1011.1
20260507091819 22 62 0.0 6.4 0.00 0.03 0.00 64 1011.1
20260507091319 22 12 0.0 4.8 0.00 0.03 0.00 65 1011.1
20260507090816 22 65 1.6 4.8 0.00 0.03 0.00 66 1011.1
20260507090316 22 67 0.0 6.4 0.00 0.03 0.00 65 1011.1
20260507085819 22 66 1.6 8.0 0.00 0.03 0.00 66 1011.3
20260507085319 21 53 0.0 6.4 0.00 0.03 0.00 66 1011.3
20260507084819 21 15 4.8 8.0 0.00 0.03 0.00 67 1011.3
20260507084316 21 9 1.6 4.8 0.00 0.03 0.00 66 1011.3
20260507083816 21 26 1.6 4.8 0.00 0.03 0.00 66 1011.3
20260507083316 21 26 4.8 6.4 0.00 0.03 0.00 65 1011.3
20260507082816 21 267 0.0 4.8 0.00 0.03 0.00 68 1011.3
20260507082319 21 44 0.0 3.2 0.00 0.03 0.00 66 1011.3
20260507081819 21 46 0.0 3.2 0.00 0.03 0.00 66 1011.3
20260507081318 20 40 3.2 6.4 0.00 0.03 0.00 67 1011.3
20260507080818 21 340 1.6 6.4 0.00 0.03 0.00 67 1011.3
20260507080318 21 68 3.2 4.8 0.00 0.03 0.00 69 1011.3
20260507075815 20 20 1.6 6.4 0.00 0.03 0.00 68 1011.3
20260507075315 20 34 3.2 8.0 0.00 0.03 0.00 68 1011.3
20260507074818 20 340 3.2 9.7 0.00 0.03 0.00 70 1011.3
20260507074315 20 38 3.2 8.0 0.00 0.03 0.00 69 1011.7
20260507073818 20 74 3.2 11.3 0.00 0.03 0.00 70 1011.7
20260507073318 20 53 4.8 11.3 0.00 0.03 0.00 70 1011.7
20260507072815 20 311 1.6 4.8 0.00 0.03 0.00 70 1011.9
20260507072318 20 46 3.2 4.8 0.00 0.03 0.00 71 1011.9
20260507071818 20 19 1.6 6.4 0.00 0.03 0.00 71 1011.9
20260507071318 20 323 0.0 4.8 0.00 0.03 0.00 72 1011.9
20260507070815 19 13 3.2 4.8 0.00 0.03 0.00 75 1011.9
20260507070315 18 294 1.6 6.4 0.00 0.03 0.00 75 1011.9
20260507065818 19 334 3.2 3.2 0.00 0.03 0.00 75 1011.8
20260507065318 18 336 0.0 3.2 0.00 0.03 0.00 78 1011.8
20260507064815 18 338 1.6 3.2 0.00 0.03 0.00 79 1011.8
20260507064315 18 339 0.0 0.0 0.00 0.03 0.00 81 1011.7
20260507063818 18 339 0.0 1.6 0.00 0.03 0.00 83 1011.7
20260507063316 17 339 0.0 0.0 0.00 0.05 0.00 84 1011.7
20260507062815 17 340 0.0 1.6 0.00 0.05 0.00 86 1011.5
20260507062318 17 340 0.0 1.6 0.00 0.05 0.00 88 1011.5
20260507061816 17 344 0.0 0.0 0.00 0.05 0.00 89 1011.5
20260507061315 17 344 0.0 0.0 0.00 0.05 0.00 90 1011.4
20260507060815 16 344 0.0 0.0 0.00 0.05 0.00 91 1011.4
20260507060315 16 344 0.0 0.0 0.00 0.05 0.00 91 1011.4
20260507055815 16 344 0.0 0.0 0.00 0.05 0.00 92 1011.5
20260507055315 16 344 0.0 0.0 0.00 0.08 0.00 92 1011.5
20260507054815 16 344 0.0 0.0 0.00 0.08 0.00 92 1011.5
20260507054318 16 344 0.0 0.0 0.00 0.08 0.00 92 1011.4
20260507053815 16 344 0.0 0.0 0.00 0.08 0.00 92 1011.4
20260507053315 15 345 0.0 0.0 0.00 0.10 0.00 92 1011.4
20260507052815 15 345 0.0 1.6 0.00 0.13 0.00 92 1011.4
20260507052315 15 344 0.0 0.0 0.00 0.13 0.00 92 1011.4
20260507051815 15 344 0.0 0.0 0.00 0.13 0.00 92 1011.4
20260507051315 15 344 0.0 0.0 0.00 0.13 0.00 93 1011.4
20260507050818 15 344 0.0 0.0 0.00 0.13 0.00 93 1011.4
20260507050315 15 344 0.0 0.0 0.00 0.13 0.00 93 1011.4
20260507045815 15 344 0.0 0.0 0.00 0.13 0.00 92 1011.3
20260507045315 15 344 0.0 0.0 0.00 0.13 0.00 93 1011.3
20260507044815 15 344 0.0 1.6 0.00 0.13 0.00 93 1011.3
20260507044315 15 344 0.0 0.0 0.00 0.13 0.00 93 1011.3
20260507043818 15 344 0.0 0.0 0.00 0.13 0.00 93 1011.3
20260507043315 15 344 0.0 1.6 0.00 0.13 0.00 93 1011.3
20260507042818 15 344 0.0 0.0 0.00 0.13 0.00 93 1011.4
20260507042318 15 344 0.0 3.2 0.00 0.13 0.00 93 1011.4
20260507041818 15 334 0.0 3.2 0.00 0.13 0.00 93 1011.4
20260507041315 15 327 0.0 0.0 0.00 0.13 0.00 93 1011.3
20260507040815 15 327 0.0 0.0 0.00 0.13 0.00 93 1011.3
20260507040318 15 327 0.0 0.0 0.00 0.13 0.00 93 1011.3
20260507035815 15 327 0.0 0.0 0.00 0.13 0.00 93 1011.1
20260507035318 15 327 0.0 0.0 0.00 0.13 0.00 93 1011.1
20260507034815 15 327 0.0 0.0 0.00 0.13 0.00 93 1011.1
20260507034315 15 327 0.0 0.0 0.00 0.13 0.00 93 1011.1
20260507033818 15 327 0.0 1.6 0.00 0.13 0.00 93 1011.1
20260507033315 15 327 0.0 1.6 0.00 0.13 0.00 93 1011.1
20260507032818 15 327 0.0 0.0 0.00 0.13 0.00 93 1011.1
20260507032315 15 327 0.0 1.6 0.00 0.13 0.00 93 1011.1
20260507031815 15 325 0.0 1.6 0.00 0.13 0.00 93 1011.1
20260507031318 15 325 0.0 0.0 0.00 0.13 0.00 93 1011.1
20260507030818 15 324 0.0 3.2 0.00 0.13 0.00 93 1011.1
20260507030315 15 317 0.0 0.0 0.00 0.13 0.00 93 1011.1
20260507025818 15 317 0.0 1.6 0.00 0.13 0.00 93 1011.2
20260507025315 15 317 0.0 0.0 0.00 0.13 0.00 93 1011.2